Location: Moscow Bay
(47.6224°N, 116.7088°W)
Time: 20:09:07
(UTC+00:00)

Daily predictions for brighter satellites

Satellite Brightness Start Highest point End
(mag) Time Altitude Azimuth Time Altitude Azimuth Time Altitude Azimuth
ATLAS 3B R/B 3.3 12:03:10 23° SSW 12:08:04 63° ESE 12:15:50 10° NE
NOSS 3-1 (A) 4.3 12:09:53 31° N 12:09:53 31° N 12:14:04 10° NNE
ADEOS Rocket 3.9 12:02:02 10° N 12:07:01 42° NNW 12:07:01 42° NNW
Cosmos 2242 Rocket 4.2 12:11:38 47° SE 12:12:24 54° E 12:16:45 10° NNE
Cosmos 1371 Rocket 3.9 12:18:02 76° NNW 12:18:02 76° NNW 12:23:05 10° NNE
Gbstr 26 Del rocket 3.7 12:17:52 57° N 12:18:02 58° N 12:23:52 10° E
SJ 16-02 3.8 12:22:31 11° S 12:22:31 11° S 12:22:39 10° S
CZ-2C R/B 2.9 12:18:48 10° N 12:22:41 50° NNW 12:22:41 50° NNW
SL-16 R/B 2.1 12:24:24 44° SSW 12:26:21 89° ESE 12:32:05 10° NNE
Cosmos 1891 Rocket 4.5 12:30:21 10° N 12:36:43 83° E 12:42:53 10° S
USA 234 3.3 12:30:35 10° ESE 12:37:08 74° NNE 12:40:19 33° NW
Cosmos 371 Rocket 4.5 12:39:48 28° SSW 12:39:48 28° SSW 12:42:18 10° S
Aureole 3 3.7 12:32:12 10° SSW 12:37:46 73° W 12:42:21 10° N
Cosmos 2233 Rocket 4.2 12:42:18 44° WNW 12:42:53 45° W 12:48:43 10° SSW
PAYLOAD A 4.1 12:42:00 10° N 12:47:10 52° WNW 12:48:17 44° WSW
Cosmos 2346 Rocket 4.3 12:41:06 10° SSW 12:47:11 66° WNW 12:53:13 10° N
Okean 2 Rocket 3.8 12:43:34 10° N 12:47:52 53° ENE 12:52:08 10° SSE
Cosmos 1400 Rocket 2.6 12:47:14 55° N 12:47:57 78° ENE 12:51:36 10° SSE
Cosmos 2061 Rocket 4.2 12:46:13 26° NW 12:49:20 44° W 12:55:09 10° SSW
Cosmos 1624 Rocket 4.2 12:50:10 45° WNW 12:50:10 45° WNW 12:55:09 10° NNE
ARGOS 3.8 12:46:09 10° N 12:50:15 35° NW 12:50:15 35° NW
Cosmos 1447 Rocket 4.4 12:45:31 10° SSW 12:51:44 64° WNW 12:58:03 10° N
Cosmos 2084 3.8 12:51:18 38° NNW 12:52:33 56° NE 12:56:30 10° SE
Orbus 7S? 3.9 12:53:18 40° NNW 12:53:18 40° NNW 12:55:56 10° NE
SKYMED 2 3.6 12:49:25 10° SSE 12:53:45 83° ENE 12:57:57 11° NNW
Cosmos 1674 Rocket 3.6 12:55:23 10° S 12:59:48 78° E 13:04:14 10° NNE
Cosmos 1464 Rocket 4.0 12:53:39 10° N 12:59:49 79° E 13:05:57 10° SSE
Cosmos 2263 4.1 12:58:27 21° NNW 13:02:23 74° WSW 13:08:07 10° SSE
Cosmos 2237 Rocket 3.6 13:05:55 20° NW 13:05:55 20° NW 13:09:33 10° N
Cosmos 1452 Rocket 3.6 13:01:25 10° SSW 13:06:38 80° ESE 13:11:53 10° NNE
Cosmos 332 Rocket 3.6 13:04:19 20° NNW 13:07:39 78° WSW 13:12:23 10° SSE
Cosmos 1850 Rocket 3.9 13:06:26 19° NNW 13:10:11 68° WSW 13:15:19 10° S
Cosmos 2369 Rocket 2.4 13:08:25 25° NW 13:11:23 48° WSW 13:16:50 10° S
NOAA 12 4.1 13:06:27 10° NNE 13:11:49 89° WNW 13:17:08 10° SSW
CZ-4 R/B 3.7 13:07:07 10° NNE 13:11:57 81° WNW 13:16:40 10° SSW
Cosmos 2297 3.9 13:09:29 25° NW 13:12:29 48° WSW 13:17:50 10° S
Cosmos 1331 Rocket 3.9 13:07:50 10° SSW 13:13:05 74° WNW 13:18:19 10° NNE
Cosmos 1943 3.3 13:07:45 10° SSW 13:13:20 79° ESE 13:18:58 10° NNE
USA 306 3.6 13:13:04 26° NNW 13:13:34 28° N 13:16:54 10° ENE
Cosmos 2034 Rocket 4.4 13:07:22 10° N 13:13:44 69° E 13:20:05 10° SSE
Cosmos 1455 Rocket 4.2 13:13:25 10° N 13:17:35 44° ENE 13:21:46 10° SSE
Meteor 1-11 4.2 13:14:32 10° SSW 13:20:25 84° WNW 13:26:17 10° N
SWARM A 4.3 13:17:40 10° SSW 13:20:53 51° W 13:24:09 10° N
Cosmos 1378 Rocket 3.8 13:21:09 10° SSW 13:25:11 41° WNW 13:29:16 10° N
Cosmos 2221 Rocket 3.5 13:25:07 10° SSW 13:29:39 80° WNW 13:34:12 10° N
Cosmos 2151 Rocket 3.9 13:26:57 10° NNW 13:31:13 44° W 13:35:25 10° SSW
Lacrosse 5 rocket 1.1 13:33:59 27° WNW 13:35:24 48° SW 13:38:36 10° SSE
Lacrosse 4 Rocket 1.2 13:33:54 14° NNW 13:37:19 82° ENE 13:41:13 10° SE
Okean 1 Rocket 3.0 13:34:11 10° NNW 13:38:25 56° W 13:42:36 10° S
USA 229 DEB 3.8 13:34:44 12° WSW 13:40:07 48° NW 13:46:44 10° NE
USA 229 3.8 13:34:54 12° WSW 13:40:21 49° NW 13:46:58 10° NE
Cosmos 1939 Rocket 4.5 13:38:29 10° NNW 13:39:51 15° NW 13:39:51 15° NW
USA 267 3.3 13:36:27 10° NE 13:42:56 68° NNW 13:49:24 10° WSW
Sich 1 Rocket 3.8 13:39:02 10° NNW 13:43:24 50° W 13:47:43 10° SSW
NOSS 3-2 (A) 4.1 13:37:17 11° NW 13:44:22 72° SW 13:53:12 10° SSE
NOSS 2-2 (E) 3.5 13:41:18 15° NW 13:44:29 84° SW 13:49:49 10° SE
Cosmos 1484 Rocket 2.4 13:42:09 10° N 13:45:42 81° WNW 13:49:11 10° SSW
Cosmos 968 Rocket 4.4 13:42:41 15° NW 13:46:02 27° W 13:50:22 10° SSW
Helios 1A Rocket 3.4 13:43:40 10° SSW 13:46:32 26° W 13:48:27 16° NW
SMAP 4.4 13:43:09 10° NNE 13:47:37 43° E 13:52:02 10° S
COSMO-SKYMED 1 3.1 13:48:43 10° SSW 13:52:27 33° W 13:56:14 10° NNW
Cosmos 2228 3.9 13:49:33 10° N 13:53:43 51° ENE 13:57:51 10° SSE
DMSP B5D1-3 4.5 13:49:18 10° S 13:54:22 71° WSW 13:59:31 10° NNW
CENTAUR R/B 3.9 13:47:31 11° NW 13:54:54 39° WSW 14:03:21 10° S
IRS-1D 4.1 13:51:44 10° N 13:56:04 32° WNW 14:00:23 10° SW
Cosmos 292 Rocket 3.9 13:51:48 10° NNW 13:56:30 56° WSW 14:01:08 10° S
BREEZE-M DEB (TANK) 2.8 13:56:09 10° WSW 13:58:45 55° SSE 14:04:08 10° E
ATLAS 3B R/B 3.4 13:51:57 10° WSW 13:59:15 45° NW 14:06:49 10° NE
IGS 5A 3.3 13:55:30 10° NNE 13:59:30 84° WNW 14:03:27 10° SSW
CZ-2C R/B 4.2 13:59:07 10° NNW 14:01:01 12° NW 14:01:54 12° WNW
Cosmos 1656 4.3 13:55:51 10° NNW 14:01:31 59° ENE 14:07:07 10° SE
Gbstr 26 Del rocket 3.8 13:59:54 12° WNW 14:04:47 74° SSW 14:11:19 10° SE
Cosmos 1315 Rocket 2.7 14:06:36 10° N 14:10:28 89° ENE 14:14:17 10° S
SL-16 R/B 3.5 14:07:02 10° W 14:11:15 21° NW 14:15:29 10° N
Cosmos 1975 Rocket 3.1 14:07:06 10° S 14:11:23 86° E 14:15:42 10° N
Cosmos 1441 Rocket 3.2 14:09:29 10° SW 14:12:38 40° WNW 14:15:49 10° N
Cosmos 1302 Rocket 4.1 14:09:11 10° SW 14:14:12 52° WNW 14:19:17 10° NNE
Cosmos 1992 Rocket 4.0 14:13:29 10° SSW 14:18:42 82° WNW 14:23:57 10° NNE
USA 234 3.9 14:14:16 10° SSE 14:20:25 42° SW 14:26:35 10° WNW
CORIOLIS 4.3 14:15:12 10° NNE 14:20:35 84° ESE 14:25:56 10° SSW
Cosmos 1025 Rocket 4.1 14:17:31 10° WSW 14:21:00 23° WNW 14:24:31 10° NNW
SJ-12 4.1 14:18:11 10° NNE 14:21:59 69° ESE 14:25:45 10° S
Cosmos 1782 3.6 14:18:58 10° N 14:22:29 47° ENE 14:25:58 10° SSE
Cosmos 1356 Rocket 3.4 14:19:55 10° NNW 14:23:59 66° W 14:28:01 10° S
Tsikada Rocket 4.1 14:20:27 10° SSW 14:26:41 59° WNW 14:33:03 10° N
